Location: Johnson City
(36.3130°N, 82.3540°W)
Time: 02:51:03
(UTC-05:00)

Envisat - Visible Passes

Search period start: 19 February 2019 00:00
Search period end: 01 March 2019 00:00
Orbit: 764 x 766 km, 98.2° (Epoch: 19 February)

Date Brightness Start Highest point End Pass type
(mag) Time Alt. Az. Time Alt. Az. Time Alt. Az.
19 Feb 6.5 06:39:54 10° ENE 06:41:52 12° E 06:43:50 10° ESE visible
19 Feb 3.4 19:28:01 10° S 19:33:02 65° W 19:38:06 10° NNW visible
20 Feb 3.1 18:51:26 10° SSE 18:56:21 54° ENE 19:01:18 10° N visible
20 Feb 5.9 20:32:49 10° SW 20:35:39 15° W 20:38:31 10° WNW visible
21 Feb 4.6 19:54:03 10° SSW 19:58:39 35° W 20:03:17 10° NNW visible
22 Feb 3.1 19:16:45 10° SSE 19:21:50 84° WSW 19:26:56 10° NNW visible
23 Feb 3.4 18:40:27 10° SE 18:45:12 42° ENE 18:49:58 10° N visible
23 Feb 5.6 20:20:45 10° SW 20:24:21 19° W 20:27:58 10° NW visible
24 Feb 4.1 19:42:33 10° S 19:47:23 45° W 19:52:16 10° NNW visible
25 Feb 2.9 19:05:35 10° SSE 19:10:38 77° ENE 19:15:43 10° N visible
26 Feb 5.2 20:08:56 10° SSW 20:13:03 25° W 20:17:12 10° NW visible
27 Feb 3.6 19:31:11 10° S 19:36:10 59° W 19:41:11 10° NNW visible
28 Feb 3.0 18:54:29 10° SSE 18:59:27 59° ENE 19:04:27 10° N visible
28 Feb 6.0 20:36:22 10° WSW 20:38:49 13° W 20:41:16 10° WNW visible
